Location: *
(13.2257°S, 48.7193°W)
Time: 10:00:48
(UTC+00:00)

Cosmos 1441 Rocket - Pass Details

Date: 13 February 2026
Orbit: 415 x 439 km, 81.1° (Epoch: 11 March)

Event Time Altitude Azimuth Distance (km) Brightness Sun altitude
Exits shadow 07:51:13 37° 13° (NNE) 672 3.6 -19.9°
Maximum altitude 07:52:20 69° 85° (E) 457 3.0 -19.6°
Drops below altitude 10° 07:55:38 10° 168° (SSE) 1,525 6.0 -18.8°
Sets 07:57:42 0° 171° (S) 2,403 7.0 -18.4°
